Time,TemperatureF,DewpointF,PressureIn,WindDirection,WindDirectionDegrees,WindSpeedMPH,WindSpeedGustMPH,Humidity,HourlyPrecipIn,Conditions,Clouds,dailyrainin,SolarRadiationWatts/m^2,SoftwareType,DateUTC
2013-06-01 00:22:00,41.0,3.0,-100.00,SSE,150,2.0,7.0,20,0.00,,,0.00,1.000000,,2013-06-01 06:22:00,
2013-06-01 00:32:00,41.0,3.0,-100.00,SSE,150,2.0,7.0,20,0.00,,,0.00,1.000000,,2013-06-01 06:32:00,
2013-06-01 00:42:00,41.0,3.0,-100.00,SSE,150,2.0,7.0,20,0.00,,,0.00,1.000000,,2013-06-01 06:42:00,
2013-06-01 00:52:00,41.0,3.0,-100.00,SSE,150,2.0,7.0,20,0.00,,,0.00,1.000000,,2013-06-01 06:52:00,
2013-06-01 01:21:00,42.0,3.0,-100.00,NNE,14,2.0,4.0,19,0.00,,,0.00,1.000000,,2013-06-01 07:21:00,
2013-06-01 01:31:00,42.0,3.0,-100.00,NNE,14,2.0,4.0,19,0.00,,,0.00,1.000000,,2013-06-01 07:31:00,
2013-06-01 01:52:00,42.0,3.0,-100.00,NNE,14,2.0,4.0,19,0.00,,,0.00,1.000000,,2013-06-01 07:52:00,
2013-06-01 02:21:00,45.0,6.0,-100.00,NE,40,4.0,9.0,20,0.00,,,0.00,1.000000,,2013-06-01 08:21:00,
2013-06-01 02:32:00,45.0,6.0,-100.00,NE,40,4.0,9.0,20,0.00,,,0.00,1.000000,,2013-06-01 08:32:00,
2013-06-01 02:42:00,45.0,6.0,-100.00,NE,40,4.0,9.0,20,0.00,,,0.00,1.000000,,2013-06-01 08:42:00,
2013-06-01 02:52:00,45.0,6.0,-100.00,NE,40,4.0,9.0,20,0.00,,,0.00,1.000000,,2013-06-01 08:52:00,
2013-06-01 05:21:00,42.0,11.0,-100.00,NE,52,6.0,13.0,28,-99.99,,,0.00,1.000000,,2013-06-01 11:21:00,
2013-06-01 05:32:00,42.0,11.0,-100.00,NE,52,6.0,13.0,28,-99.99,,,0.00,1.000000,,2013-06-01 11:32:00,
2013-06-01 05:42:00,42.0,11.0,-100.00,NE,52,6.0,13.0,28,-99.99,,,0.00,1.000000,,2013-06-01 11:42:00,
2013-06-01 05:52:00,42.0,11.0,-100.00,NE,52,6.0,13.0,28,-99.99,,,0.00,1.000000,,2013-06-01 11:52:00,
2013-06-01 07:22:00,44.0,15.0,-100.00,East,85,5.0,9.0,31,0.00,,,0.00,56.000000,,2013-06-01 13:22:00,
2013-06-01 07:42:00,44.0,15.0,-100.00,East,85,5.0,9.0,31,0.00,,,0.00,56.000000,,2013-06-01 13:42:00,
2013-06-01 07:52:00,44.0,15.0,-100.00,East,85,5.0,9.0,31,0.00,,,0.00,56.000000,,2013-06-01 13:52:00,
2013-06-01 08:21:00,50.0,17.0,-100.00,ESE,112,4.0,6.0,27,0.00,,,0.00,242.000000,,2013-06-01 14:21:00,
2013-06-01 08:32:00,50.0,17.0,-100.00,ESE,112,4.0,6.0,27,0.00,,,0.00,242.000000,,2013-06-01 14:32:00,
2013-06-01 08:42:00,50.0,17.0,-100.00,ESE,112,4.0,6.0,27,0.00,,,0.00,242.000000,,2013-06-01 14:42:00,
2013-06-01 08:52:00,50.0,17.0,-100.00,ESE,112,4.0,6.0,27,0.00,,,0.00,242.000000,,2013-06-01 14:52:00,
2013-06-01 09:21:00,52.0,18.0,-100.00,ENE,64,7.0,14.0,26,0.00,,,0.00,449.000000,,2013-06-01 15:21:00,
2013-06-01 09:33:00,52.0,18.0,-100.00,ENE,64,7.0,14.0,26,0.00,,,0.00,449.000000,,2013-06-01 15:33:00,
2013-06-01 09:43:00,52.0,18.0,-100.00,ENE,64,7.0,14.0,26,0.00,,,0.00,449.000000,,2013-06-01 15:43:00,
2013-06-01 09:53:00,52.0,18.0,-100.00,ENE,64,7.0,14.0,26,0.00,,,0.00,449.000000,,2013-06-01 15:53:00,
2013-06-01 10:23:00,54.0,17.0,-100.00,ENE,74,6.0,14.0,23,0.00,,,0.00,649.000000,,2013-06-01 16:23:00,
2013-06-01 10:33:00,54.0,17.0,-100.00,ENE,74,6.0,14.0,23,0.00,,,0.00,649.000000,,2013-06-01 16:33:00,
2013-06-01 10:42:00,54.0,17.0,-100.00,ENE,74,6.0,14.0,23,0.00,,,0.00,649.000000,,2013-06-01 16:42:00,
2013-06-01 10:52:00,54.0,17.0,-100.00,ENE,74,6.0,14.0,23,0.00,,,0.00,649.000000,,2013-06-01 16:52:00,
2013-06-01 11:22:00,58.0,17.0,-100.00,NE,49,5.0,13.0,20,0.00,,,0.00,824.000000,,2013-06-01 17:22:00,
2013-06-01 11:32:00,58.0,17.0,-100.00,NE,49,5.0,13.0,20,0.00,,,0.00,824.000000,,2013-06-01 17:32:00,
2013-06-01 11:42:00,58.0,17.0,-100.00,NE,49,5.0,13.0,20,0.00,,,0.00,824.000000,,2013-06-01 17:42:00,
2013-06-01 11:52:00,58.0,17.0,-100.00,NE,49,5.0,13.0,20,0.00,,,0.00,824.000000,,2013-06-01 17:52:00,
2013-06-01 12:21:00,61.0,14.0,-100.00,NE,55,6.0,11.0,16,0.00,,,0.00,957.000000,,2013-06-01 18:21:00,
2013-06-01 12:32:00,61.0,14.0,-100.00,NE,55,6.0,11.0,16,0.00,,,0.00,957.000000,,2013-06-01 18:32:00,
2013-06-01 12:41:00,61.0,14.0,-100.00,NE,55,6.0,11.0,16,0.00,,,0.00,957.000000,,2013-06-01 18:41:00,
2013-06-01 12:51:00,61.0,14.0,-100.00,NE,55,6.0,11.0,16,0.00,,,0.00,957.000000,,2013-06-01 18:51:00,
2013-06-01 13:21:00,64.0,15.0,-100.00,ENE,70,3.0,13.0,15,0.00,,,0.00,1033.000000,,2013-06-01 19:21:00,
2013-06-01 13:32:00,64.0,15.0,-100.00,ENE,70,3.0,13.0,15,0.00,,,0.00,1033.000000,,2013-06-01 19:32:00,
2013-06-01 13:41:00,64.0,15.0,-100.00,ENE,70,3.0,13.0,15,0.00,,,0.00,1033.000000,,2013-06-01 19:41:00,
2013-06-01 13:52:00,64.0,15.0,-100.00,ENE,70,3.0,13.0,15,0.00,,,0.00,1033.000000,,2013-06-01 19:52:00,
2013-06-01 14:12:00,66.0,14.0,-100.00,SW,235,4.0,11.0,13,0.00,,,0.00,1051.000000,,2013-06-01 20:12:00,
2013-06-01 14:21:00,66.0,14.0,-100.00,SW,235,4.0,11.0,13,0.00,,,0.00,1051.000000,,2013-06-01 20:21:00,
2013-06-01 14:32:00,66.0,14.0,-100.00,SW,235,4.0,11.0,13,0.00,,,0.00,1051.000000,,2013-06-01 20:32:00,
2013-06-01 14:41:00,66.0,14.0,-100.00,SW,235,4.0,11.0,13,0.00,,,0.00,1051.000000,,2013-06-01 20:41:00,
2013-06-01 14:51:00,66.0,14.0,-100.00,SW,235,4.0,11.0,13,0.00,,,0.00,1051.000000,,2013-06-01 20:51:00,
2013-06-01 15:21:00,68.0,15.0,-100.00,ENE,75,5.0,13.0,13,0.00,,,0.00,1018.000000,,2013-06-01 21:21:00,
2013-06-01 15:33:00,68.0,15.0,-100.00,ENE,75,5.0,13.0,13,0.00,,,0.00,1018.000000,,2013-06-01 21:33:00,
2013-06-01 15:42:00,68.0,15.0,-100.00,ENE,75,5.0,13.0,13,0.00,,,0.00,1018.000000,,2013-06-01 21:42:00,
2013-06-01 15:53:00,68.0,15.0,-100.00,ENE,75,5.0,13.0,13,0.00,,,0.00,1018.000000,,2013-06-01 21:53:00,
2013-06-01 16:23:00,69.0,12.0,-100.00,ESE,103,4.0,11.0,11,0.00,,,0.00,931.000000,,2013-06-01 22:23:00,
2013-06-01 16:33:00,69.0,12.0,-100.00,ESE,103,4.0,11.0,11,0.00,,,0.00,931.000000,,2013-06-01 22:33:00,
2013-06-01 16:42:00,69.0,12.0,-100.00,ESE,103,4.0,11.0,11,0.00,,,0.00,931.000000,,2013-06-01 22:42:00,
2013-06-01 16:53:00,69.0,12.0,-100.00,ESE,103,4.0,11.0,11,0.00,,,0.00,931.000000,,2013-06-01 22:53:00,
2013-06-01 17:21:00,71.0,14.0,-100.00,East,84,3.0,11.0,11,0.00,,,0.00,794.000000,,2013-06-01 23:21:00,
2013-06-01 17:32:00,71.0,14.0,-100.00,East,84,3.0,11.0,11,0.00,,,0.00,794.000000,,2013-06-01 23:32:00,
2013-06-01 17:42:00,71.0,14.0,-100.00,East,84,3.0,11.0,11,0.00,,,0.00,794.000000,,2013-06-01 23:42:00,
2013-06-01 17:52:00,71.0,14.0,-100.00,East,84,3.0,11.0,11,0.00,,,0.00,794.000000,,2013-06-01 23:52:00,
2013-06-01 18:21:00,70.0,15.0,-100.00,NNE,21,4.0,9.0,12,0.00,,,0.00,617.000000,,2013-06-02 00:21:00,
2013-06-01 18:32:00,70.0,15.0,-100.00,NNE,21,4.0,9.0,12,0.00,,,0.00,617.000000,,2013-06-02 00:32:00,
2013-06-01 18:41:00,70.0,15.0,-100.00,NNE,21,4.0,9.0,12,0.00,,,0.00,617.000000,,2013-06-02 00:41:00,
2013-06-01 18:51:00,70.0,15.0,-100.00,NNE,21,4.0,9.0,12,0.00,,,0.00,617.000000,,2013-06-02 00:51:00,
2013-06-01 19:21:00,67.0,18.0,-100.00,NE,46,6.0,10.0,15,0.00,,,0.00,405.000000,,2013-06-02 01:21:00,
2013-06-01 19:32:00,67.0,18.0,-100.00,NE,46,6.0,10.0,15,0.00,,,0.00,405.000000,,2013-06-02 01:32:00,
2013-06-01 19:41:00,67.0,18.0,-100.00,NE,46,6.0,10.0,15,0.00,,,0.00,405.000000,,2013-06-02 01:41:00,
2013-06-01 19:52:00,67.0,18.0,-100.00,NE,46,6.0,10.0,15,0.00,,,0.00,405.000000,,2013-06-02 01:52:00,
2013-06-01 20:21:00,62.0,18.0,-100.00,NE,45,5.0,11.0,18,0.00,,,0.00,196.000000,,2013-06-02 02:21:00,
2013-06-01 20:32:00,62.0,18.0,-100.00,NE,45,5.0,11.0,18,0.00,,,0.00,196.000000,,2013-06-02 02:32:00,
2013-06-01 20:41:00,62.0,18.0,-100.00,NE,45,5.0,11.0,18,0.00,,,0.00,196.000000,,2013-06-02 02:41:00,
2013-06-01 20:51:00,62.0,18.0,-100.00,NE,45,5.0,11.0,18,0.00,,,0.00,196.000000,,2013-06-02 02:51:00,
2013-06-01 21:21:00,54.0,16.0,-100.00,East,87,4.0,6.0,22,0.00,,,0.00,19.000000,,2013-06-02 03:21:00,
2013-06-01 21:33:00,54.0,16.0,-100.00,East,87,4.0,6.0,22,0.00,,,0.00,19.000000,,2013-06-02 03:33:00,
2013-06-01 21:43:00,54.0,16.0,-100.00,East,87,4.0,6.0,22,0.00,,,0.00,19.000000,,2013-06-02 03:43:00,
2013-06-01 21:52:00,54.0,16.0,-100.00,East,87,4.0,6.0,22,0.00,,,0.00,19.000000,,2013-06-02 03:52:00,
2013-06-01 22:23:00,52.0,14.0,-100.00,East,87,4.0,7.0,22,0.00,,,0.00,1.000000,,2013-06-02 04:23:00,
2013-06-01 22:33:00,52.0,14.0,-100.00,East,87,4.0,7.0,22,0.00,,,0.00,1.000000,,2013-06-02 04:33:00,
2013-06-01 22:42:00,52.0,14.0,-100.00,East,87,4.0,7.0,22,0.00,,,0.00,1.000000,,2013-06-02 04:42:00,
2013-06-01 22:52:00,52.0,14.0,-100.00,East,87,4.0,7.0,22,0.00,,,0.00,1.000000,,2013-06-02 04:52:00,
2013-06-01 23:22:00,49.0,10.0,-100.00,East,81,4.0,7.0,20,0.00,,,0.00,1.000000,,2013-06-02 05:22:00,
2013-06-01 23:32:00,49.0,10.0,-100.00,East,81,4.0,7.0,20,0.00,,,0.00,1.000000,,2013-06-02 05:32:00,
2013-06-01 23:42:00,49.0,10.0,-100.00,East,81,4.0,7.0,20,0.00,,,0.00,1.000000,,2013-06-02 05:42:00,
2013-06-01 23:52:00,49.0,10.0,-100.00,East,81,4.0,7.0,20,0.00,,,0.00,1.000000,,2013-06-02 05:52:00,